Location: Treviso
(45.6669°N, 12.2430°E)
Time: 09:21:33
(UTC+02:00)

ISS - Pass Details

Date: 03 July 2022
Orbit: 414 x 420 km, 51.6° (Epoch: 02 July)

Event Time Altitude Azimuth Distance (km) Brightness Sun altitude
Exits shadow 03:21:52 30° 251° (WSW) 781 -2.8 -15.6°
Maximum altitude 03:23:24 77° 333° (NNW) 432 -3.7 -15.4°
Drops below altitude 10° 03:26:46 10° 60° (ENE) 1,501 0.0 -15.1°
Sets 03:28:52 0° 62° (ENE) 2,368 1.1 -14.9°
